Miscellaneous Local Product
Issued by NWS North Platte, NE

Home | Current Version | Previous Version | Graphics & Text | Print | Product List | Glossary On
Versions: 1 2 3 4 5 6 7 8 9 10 11 12 13 14 15 16 17 18 19 20 21 22 23 24 25 26 27 28 29 30 31 32 33 34 35 36 37 38 39 40 41 42 43 44 45 46 47 48 49 50
310
AXUS43 KLBF 131010
MISLBF


WESTERN AND NORTH CENTRAL NEBRASKA HOURLY WEATHER ROUNDUP
NATIONAL WEATHER SERVICE NORTH PLATTE NE
400 AM CST SAT FEB 13 2016

NOTE: "FAIR" INDICATES FEW OR NO CLOUDS BELOW 12,000 FEET WITH NO
SIGNIFICANT WEATHER AND/OR OBSTRUCTIONS TO VISIBILITY.

NOTE: STATIONS NOT REPORTING VARIABLES SUCH AS SKY/WEATHER OR
PRESSURE ARE PROVIDED BY THE NEBRASKA DEPARTMENT OF
ROADS...RAWS...AND APRS NETWORKS...AND ARE NOT UNDER
NATIONAL WEATHER SERVICE QUALITY CONTROL.

...OBSERVATIONS IN AND NEAR THE EASTERN PANHANDLE OF NEBRASKA...

CITY           SKY/WX    TMP DP  RH WIND       PRES   REMARKS
PINE RIDGE     CLOUDY    33  29  85 S14       30.15F WCI  23
CHADRON        CLOUDY    34  29  82 S15       30.14F WCI  24
ALLIANCE       CLOUDY    30  29  96 S20       30.15F WCI  17
SIDNEY         CLOUDY    30  30 100 S15       30.18F FOG     WCI  19
CRESCENT LAKE    N/A     29  29  98 S13         N/A  WCI  19
$$

...OBSERVATIONS IN NORTH CENTRAL NEBRASKA...

CITY           SKY/WX    TMP DP  RH WIND       PRES   REMARKS
VALENTINE      CLOUDY    22  17  81 SE20      30.31F WCI   7
THEDFORD       CLOUDY    24  22  91 S10G18    30.32F WCI  14
AINSWORTH      CLOUDY    21  16  81 SE16      30.35F WCI   7
O`NEILL        LGT SNOW  14  10  85 SE12      30.47F WCI   0
ORD            CLOUDY    16  10  77 SE9       30.47R WCI   4
BROKEN BOW     CLOUDY    19  16  88 SE12G22   30.40F WCI   7
VALENTINE NWR    N/A     20  17  87 SE12        N/A  WCI   8
BUTTE            N/A     10   7  89 SE13        N/A  WCI  -5
HALSEY           N/A     22  18  85 SE8G15      N/A  WCI  13
CHAMBERS         N/A     14   8  76 S3          N/A
EWING            N/A     12   8  83 SE3         N/A
$$

...OBSERVATIONS IN SOUTHWEST NEBRASKA AND FAR NORTHEAST COLORADO...

CITY           SKY/WX    TMP DP  RH WIND       PRES   REMARKS
WRAY           CLOUDY   N/A N/A N/A S12G21    30.26F
HOLYOKE        CLOUDY    32  30  93 S16       30.24F FOG     WCI  21
IMPERIAL       CLOUDY    28  27  96 S18       30.28F WCI  15
OGALLALA       CLOUDY    30  28  94 S14       30.27F FOG     WCI  19
NORTH PLATTE   CLOUDY    22  19  89 S10       30.33F WCI  11
MCCOOK         CLOUDY    23  21  92 SE10      30.38F FOG     WCI  12
LEXINGTON      CLOUDY    21  16  81 SE12      30.41F WCI   9
STAPLETON        N/A     20  18  92 CALM        N/A
$$

...OBSERVATIONS IN CENTRAL LINCOLN COUNTY AREA...

CITY           SKY/WX    TMP DP  RH WIND       PRES   REMARKS
N.P. AIRPORT   CLOUDY    22  19  89 S10       30.33F WCI  11
N.P. DOWNTOWN    N/A     22  20  92 SE5G13      N/A  WCI  16
N.P. SOUTHEAST   N/A     21  19  91 S10G17      N/A  WCI  10
N.P. HILLCREST   N/A     22  21  94 S12         N/A  WCI  11
$$

...SOME OBSERVATIONS FROM AROUND THE REGION...

CITY           SKY/WX    TMP DP  RH WIND       PRES   REMARKS
DENVER         FOG       28  27  96 NW7       30.13F VSB 1/16WCI  21
LARAMIE        CLOUDY    37  21  52 SW9       30.16F WCI  30
CHEYENNE       CLOUDY    32  26  78 VRB6      30.10F WCI  26
SCOTTSBLUFF    CLOUDY    33  30  88 SE12      30.14F WCI  24
RAPID CITY     CLOUDY    27  24  89 SE14      30.10F WCI  16
BISMARCK       CLOUDY     9  -1  64 SE15      30.38F WCI  -8
PIERRE         CLOUDY    11   4  73 E17G29    30.38F WCI  -6
WINNER         CLOUDY    17  10  74 SE15      30.39F WCI   2
SIOUX FALLS    CLOUDY     0  -9  65 E6        30.57F WCI -12
OMAHA          CLOUDY    10  -1  61 CALM      30.65R
GRAND ISLAND   CLOUDY    16   8  71 SE10      30.51F WCI   4
KANSAS CITY    CLOUDY    16   3  56 NE12      30.58F WCI   3
WICHITA        CLOUDY    26  13  57 E14       30.48F WCI  14
OKLAHOMA CITY  CLEAR     35  27  72 NE12      30.42F WCI  27
LIBERAL        CLOUDY    25  18  74 SE6       30.36S WCI  18
HAYS           CLOUDY    21   9  58 E10       30.45F WCI  10
GOODLAND       CLOUDY    26  24  92 S20       30.29F WCI  12
$$




USA.gov is the U.S. government's official web portal to all federal, state and local government web resources and services.